Regional Weather Roundup
Issued by NWS

Home | Current Version | Previous Version | Graphics & Text | Print | Product List | Glossary On
Versions: 1 2 3 4 5 6 7 8 9 10 11 12 13 14 15 16 17 18 19 20 21 22 23 24 25 26 27 28 29 30 31 32 33 34 35 36 37 38 39 40 41 42 43 44 45 46 47 48 49 50
087
ASUS45 KTFX 210110
RWRMT
MONTANA REGIONAL WEATHER ROUNDUP
NATIONAL WEATHER SERVICE GREAT FALLS MT
600 PM MST MON NOV 20 2017

NOTE: "FAIR" INDICATES FEW OR NO CLOUDS BELOW 12000 FEET WITH NO
SIGNIFICANT WEATHER AND/OR OBSTRUCTIONS TO VISIBILITY.

MTZ001>007-043-210200-
WEST OF THE DIVIDE

CITY           SKY/WX    TMP DP  RH WIND       PRES   REMARKS
KALISPELL      CLOUDY    40  38  93 S10       29.78R
MISSOULA       LGT RAIN  39  39 100 N3        29.85R
BUTTE          CLOUDY    40  32  73 SW5       29.82R
MULLAN PASS    SNOW      31  29  92 VRB6      29.76R VSB 1/4 WCI  25
ANACONDA         N/A     41  32  70 SW9       29.79R
DEER LODGE       N/A     37  36  93 N10       29.82R WCI  30
EUREKA           N/A     37  36  93 MISG      29.77R
HAMILTON         N/A     43  39  87 S9        29.80R
LIBBY            N/A     37  37 100 CALM      29.77R
PLAINS           N/A     38  34  85 CALM      29.82R
RONAN            N/A     40  38  93 SE3       29.86
$$

MTZ008-052>055-210200-
SOUTHWEST MONTANA

CITY           SKY/WX    TMP DP  RH WIND       PRES   REMARKS
BOZEMAN        LGT RAIN  45  32  60 SW10G29   29.79R
DILLON         MOCLDY    34  28  79 SW7       29.83R WCI  28
W YELLOWSTONE  LGT SNOW  30  28  93 VRB3      29.95R
ENNIS          CLOUDY    37  30  75 S14G20    29.90R WCI  29
TWIN BRIDGES     N/A     39  30  70 CALM      29.84R
$$

MTZ009-010-012-014-046-048-049-054-210200-
EAST SLOPES AND CENTRAL MONTANA

CITY           SKY/WX    TMP DP  RH WIND       PRES   REMARKS
CUT BANK       CLOUDY    25  21  85 NE13      29.87R WCI  14
GREAT FALLS    LGT SNOW  28  23  81 E10       29.84R WCI  19
MALMSTROM AFB  FLURRIES  28  26  91 NE8       29.86R WCI  20
HELENA         LGT RAIN  41  39  93 SW5       29.80R
BOWMANS CRNR   SNOWSHWR  27  27  99 NE15      29.78R FOG     WCI  15
CHOTEAU          N/A     30  25  80 NE9       29.85R WCI  22
FAIRFIELD      FLURRIES  29  22  76 E8        29.83R WCI  21
POWER          FLURRIES  28  22  81 E7        29.84R WCI  20
RAYNESFORD     LGT SNOW  28  27  98 NW8       29.83R WCI  20
ULM            LGT SNOW  29  27  94 NE12      29.84R WCI  19
$$

MTZ011-013-016-021-045-047-050-051-210200-
NORTH CENTRAL MONTANA

CITY           SKY/WX    TMP DP  RH WIND       PRES   REMARKS
HAVRE          CLOUDY    28  22  78 NE12      29.91R WCI  18
LEWISTOWN      LGT SNOW  30  29  96 N8        29.80R FOG     WCI  22
N BAR RANCH    FLURRIES  28  27  93 E6        29.80R WCI  22
CHINOOK          N/A     27  16  63 N10G16    29.91R WCI  17
DENTON         LGT SNOW  28  26  94 MISG      29.80R VSB 3/4
GEYSER         SNOWSHWR  26  26  98 N6        29.82R WCI  20
GRASS RANGE    SNOWSHWR  29  28  97 NE5       29.78R
STANFORD       SNOWSHWR  27  26  96 NW6       29.81R WCI  20
WINIFRED       LGT SNOW  27  26  97 E8        29.82R WCI  19
$$

MTZ017>020-022>027-061-062-210200-
NORTHEAST MONTANA

CITY           SKY/WX    TMP DP  RH WIND       PRES   REMARKS
GLASGOW        CLOUDY    30  18  60 N18       29.84R WCI  18
GLENDIVE       LGT RAIN  34  18  52 NW15      29.80R WCI  24
JORDAN           N/A     34  20  56 N9        29.82R WCI  27
SIDNEY         CLOUDY    33  15  47 NW14      29.78R WCI  23
WOLF POINT     CLOUDY    32  14  47 NW23      29.82R WCI  19
MALTA          CLOUDY    32  19  59 NW9       29.88R WCI  24
PLENTYWOOD       N/A     18  10  73 NW21G33   29.77R WCI   1
POPLAR           N/A     30  12  47 NW12      29.81R WCI  21
$$

MTZ028>42-056>058-210200-
SOUTHCENTRAL AND SOUTHEAST MONTANA

CITY           SKY/WX    TMP DP  RH WIND       PRES   REMARKS
BAKER          CLOUDY    35  23  61 NW12      29.76R WCI  27
BILLINGS       LGT RAIN  46  38  73 NW10      29.75R
LIVINGSTON     LGT RAIN  41  32  70 W28G39    29.77R
MILES CITY     LGT SNOW  35  28  75 N12       29.81R WCI  27
BIG TIMBER     CLOUDY    43  32  65 W16G23    29.77R
EKALAKA          N/A     35  24  64 NW12      29.74R WCI  27
FORSYTH          N/A     37  25  60 N9        29.81R WCI  31
HARLOWTON      MOCLDY    38  33  83 N13       29.75R WCI  30
LAUREL           N/A     46  34  61 NW5       29.76S
$$

REGIONAL REPORTS...DAKOTAS

CITY           SKY/WX    TMP DP  RH WIND       PRES   REMARKS
WILLISTON      CLOUDY    28  13  53 NW20G28   29.77R WCI  15
MINOT          FAIR      25  17  72 W21G33    29.65R WCI  11
DICKINSON      MOCLDY    33  20  58 W10       29.68R WCI  25
BEACH          CLOUDY    32  14  47 NW14      29.77R WCI  22
CROSBY         FAIR      14   5  67 NW32G49   29.78R WCI  -7
TIOGA          FLURRIES  19   5  53 NW31G43   29.73R WCI   0
WATFORD CITY   CLOUDY    30  14  51 NW14G26   29.73R WCI  20
BISMARCK       FAIR      38  27  64 NW12      29.67R WCI  30
GRAND FORKS    FAIR      35  29  78 NW30G45   29.44R WCI  22
FARGO          FAIR      40  30  67 W22G35    29.49R
BUFFALO SD       N/A     40  26  57 N15       29.65R
RAPID CITY     FAIR      44  22  41 VRB5      29.73R
$$

REGIONAL REPORTS...WYOMING/IDAHO/WASHINGTON

CITY           SKY/WX    TMP DP  RH WIND       PRES   REMARKS
GILLETTE       MOCLDY    45  25  45 SW12      29.72S
SHERIDAN       CLOUDY    49  30  48 NE9       29.73R
BUFFALO WY     CLOUDY    48  21  34 NE3       29.75S
CODY           FAIR      43  29  57 VRB7      29.81R
YELLOWSTONE LA   N/A     27  25  92 W5        29.96F
IDAHO FALLS    CLOUDY    38  36  92 S10       30.01F WCI  31
SALMON         CLOUDY    35  32  88 CALM      29.88R
BOISE          LGT RAIN  47  41  80 SE13      29.97R
SPOKANE        CLOUDY    43  40  89 SW16      29.80R
$$

REGIONAL REPORTS...ALBERTA

CITY           SKY/WX    TMP DP  RH WIND       PRES   REMARKS
EDMONTON       CLEAR     -2 -11  65 N8        30.08R WCI -17
CALGARY        CLOUDY    16  12  86 NE7       29.93R WCI   6
LETHBRIDGE     CLOUDY    19  14  79 E15       29.95R WCI   5
MEDICINE HAT   CLOUDY    16   5  62 N9        29.99R WCI   4
$$

REGIONAL REPORTS...SASKATCHEWAN

CITY           SKY/WX    TMP DP  RH WIND       PRES   REMARKS
SWIFT CURRENT  CLEAR      3  -4  72 NW20G29   29.88R WCI -18
REGINA         MOCLDY     7   1  78 NW25G39   29.83R WCI -15
SASKATOON      PTCLDY     3  -4  72 NW21G28   29.92R WCI -18
$$




USA.gov is the U.S. government's official web portal to all federal, state and local government web resources and services.